Madison, MN

7:48 AM CST on February 26, 2017 (GMT -0600)
Madison-Lac Qui Parle County

Weather History for KDXX - November, 2013

Change the Weather History Date:

Thursday, November 21, 2013

  Actual Average (KAQP) Record (KAQP)
Temperature  
Mean Temperature 22 °F -  
Max Temperature 28 °F 34 °F 62 °F (2012)
Min Temperature 17 °F 18 °F -4 °F (1996)
Degree Days  
Heating Degree Days 42    
Moisture  
Dew Point 15 °F    
Average Humidity 73    
Maximum Humidity 93    
Minimum Humidity 59    
Precipitation  
Precipitation 0.00 in - - ()
Sea Level Pressure  
Sea Level Pressure 30.41 in    
Wind  
Wind Speed 21 mph (NNW)    
Max Wind Speed 29 mph    
Max Gust Speed 36 mph    
Visibility 10 miles    
Events Snow    
Averages and records for this station are not official NWS values.
T = Trace of Precipitation, MM = Missing Value Source: NWS Daily Summary

Daily Weather History Graph

Daily Weather History Graph

Search for Another Location

Airport or City:

Trip Planner

Search our weather history database for the weather conditions in past years. The results will help you decide how hot, cold, wet, or windy it might be!

Date:

Astronomy

Nov. 21, 2013 Rise Set
Actual Time 7:30 AM CST 4:50 PM CST
Civil Twilight 6:58 AM CST 5:22 PM CST
Nautical Twilight 6:22 AM CST 5:58 PM CST
Astronomical Twilight 5:47 AM CST 6:33 PM CST
Moon 8:29 PM CST (11/21) 10:36 AM CST (11/21)
Length of Visible Light 10h 24m
Length of Day
9h 19m
Waning Gibbous, 85% of the Moon is Illuminated
Nov 21
Waning Gibbous
Nov 25
Last Quarter
Dec 2
New
Dec 9
First Quarter
Dec 17
Full

Hourly Weather History & Observations

Time (CST) Temp. Windchill Dew Point Humidity Pressure Visibility Wind Dir Wind Speed Gust Speed Precip Events Conditions
12:13 AM 28.4 °F 15.8 °F 24.8 °F 86% 30.10 in 10.0 mi NNW 18.4 mph 26.5 mph N/A   Overcast
12:34 AM 28.4 °F 15.4 °F 24.8 °F 86% 30.11 in 10.0 mi NNW 19.6 mph 28.8 mph N/A   Overcast
12:53 AM 28.4 °F 15.1 °F 24.8 °F 86% 30.11 in 10.0 mi NNW 20.7 mph 28.8 mph N/A   Overcast
1:14 AM 28.4 °F 15.4 °F 24.8 °F 86% 30.12 in 10.0 mi NNW 19.6 mph 26.5 mph N/A   Overcast
1:34 AM 26.6 °F 12.4 °F 24.8 °F 93% 30.14 in 10.0 mi NNW 21.9 mph 29.9 mph N/A   Overcast
1:53 AM 26.6 °F 12.7 °F 24.8 °F 93% 30.15 in 10.0 mi NNW 20.7 mph 28.8 mph N/A   Overcast
2:14 AM 26.6 °F 13.1 °F 23.0 °F 86% 30.17 in 10.0 mi NNW 19.6 mph 27.6 mph N/A   Overcast
2:34 AM 26.6 °F 12.4 °F 23.0 °F 86% 30.19 in 10.0 mi NNW 21.9 mph 28.8 mph N/A   Overcast
2:53 AM 26.6 °F 12.7 °F 21.2 °F 80% 30.20 in 10.0 mi NNW 20.7 mph 29.9 mph N/A   Overcast
3:14 AM 26.6 °F 12.7 °F 19.4 °F 74% 30.22 in 10.0 mi NNW 20.7 mph 29.9 mph N/A   Overcast
3:34 AM 24.8 °F 10.0 °F 19.4 °F 80% 30.22 in 10.0 mi NNW 21.9 mph 25.3 mph N/A   Overcast
3:53 AM 24.8 °F 11.5 °F 19.4 °F 80% 30.22 in 10.0 mi NNW 17.3 mph 28.8 mph N/A   Overcast
4:14 AM 24.8 °F 9.3 °F 17.6 °F 74% 30.23 in 10.0 mi NNW 24.2 mph 33.4 mph N/A   Overcast
4:33 AM 24.8 °F 9.0 °F 17.6 °F 74% 30.23 in 10.0 mi NNW 25.3 mph 29.9 mph N/A   Overcast
4:53 AM 24.8 °F 10.0 °F 15.8 °F 69% 30.25 in 10.0 mi NNW 21.9 mph 32.2 mph N/A   Overcast
5:14 AM 23.0 °F 6.6 °F 15.8 °F 74% 30.27 in 10.0 mi NNW 25.3 mph 32.2 mph N/A   Overcast
5:33 AM 23.0 °F 7.2 °F 15.8 °F 74% 30.27 in 10.0 mi NNW 23.0 mph 28.8 mph N/A   Mostly Cloudy
5:53 AM 23.0 °F 7.2 °F 15.8 °F 74% 30.29 in 10.0 mi NNW 23.0 mph 27.6 mph N/A   Mostly Cloudy
6:14 AM 23.0 °F 7.2 °F 15.8 °F 74% 30.30 in 10.0 mi NNW 23.0 mph 29.9 mph N/A   Overcast
6:33 AM 21.2 °F 5.2 °F 15.8 °F 80% 30.30 in 10.0 mi North 21.9 mph 32.2 mph N/A   Scattered Clouds
6:54 AM 21.2 °F 5.6 °F 15.8 °F 80% 30.32 in 10.0 mi NNW 20.7 mph 33.4 mph N/A   Scattered Clouds
7:14 AM 21.2 °F 4.2 °F 15.8 °F 80% 30.33 in 10.0 mi NNW 25.3 mph 33.4 mph N/A   Scattered Clouds
7:33 AM 21.2 °F 4.5 °F 15.8 °F 80% 30.35 in 10.0 mi NNW 24.2 mph 31.1 mph N/A   Mostly Cloudy
7:54 AM 21.2 °F 4.9 °F 15.8 °F 80% 30.36 in 10.0 mi NNW 23.0 mph 34.5 mph N/A   Mostly Cloudy
8:14 AM 21.2 °F 5.6 °F 14.0 °F 74% 30.37 in 10.0 mi NNW 20.7 mph 28.8 mph N/A   Mostly Cloudy
8:33 AM 21.2 °F 4.2 °F 15.8 °F 80% 30.37 in 10.0 mi NNW 25.3 mph 31.1 mph N/A   Mostly Cloudy
8:54 AM 21.2 °F 4.2 °F 15.8 °F 80% 30.37 in 10.0 mi NNW 25.3 mph 34.5 mph N/A   Mostly Cloudy
9:13 AM 21.2 °F 4.9 °F 15.8 °F 80% 30.38 in 10.0 mi NNW 23.0 mph 33.4 mph N/A   Scattered Clouds
9:34 AM 21.2 °F 3.5 °F 15.8 °F 80% 30.38 in 10.0 mi NNW 27.6 mph 33.4 mph N/A   Scattered Clouds
9:54 AM 23.0 °F 5.7 °F 15.8 °F 74% 30.39 in 10.0 mi North 28.8 mph 35.7 mph N/A   Scattered Clouds
10:13 AM 23.0 °F 6.6 °F 15.8 °F 74% 30.40 in 10.0 mi NNW 25.3 mph 34.5 mph N/A   Clear
10:34 AM 23.0 °F 6.9 °F 15.8 °F 74% 30.41 in 5.0 mi North 24.2 mph 27.6 mph N/A Snow Light Snow
10:53 AM 23.0 °F 8.3 °F 15.8 °F 74% 30.42 in 3.0 mi North 19.6 mph 26.5 mph N/A Snow Light Snow
11:13 AM 23.0 °F 7.6 °F 15.8 °F 74% 30.43 in 4.0 mi NNW 21.9 mph 29.9 mph N/A Snow Light Snow
11:34 AM 24.8 °F 9.3 °F 14.0 °F 64% 30.43 in 10.0 mi North 24.2 mph - N/A   Clear
11:53 AM 24.8 °F 10.0 °F 15.8 °F 69% 30.43 in 10.0 mi North 21.9 mph 29.9 mph N/A   Clear
12:14 PM 23.0 °F 7.6 °F 15.8 °F 74% 30.43 in 1.5 mi North 21.9 mph 28.8 mph N/A Snow Light Snow
12:34 PM 23.0 °F 7.2 °F 15.8 °F 74% 30.43 in 2.5 mi North 23.0 mph 29.9 mph N/A Snow Light Snow
12:53 PM 24.8 °F 10.0 °F 15.8 °F 69% 30.44 in 5.0 mi NNW 21.9 mph 27.6 mph N/A Snow Light Snow
1:14 PM 24.8 °F 10.0 °F 15.8 °F 69% 30.44 in 10.0 mi NNW 21.9 mph 27.6 mph N/A   Clear
1:34 PM 24.8 °F 9.3 °F 14.0 °F 64% 30.44 in 10.0 mi NNW 24.2 mph 31.1 mph N/A   Clear
1:54 PM 24.8 °F 10.0 °F 14.0 °F 64% 30.45 in 10.0 mi NNW 21.9 mph 28.8 mph N/A   Clear
2:14 PM 24.8 °F 10.0 °F 12.2 °F 59% 30.46 in 10.0 mi North 21.9 mph 31.1 mph N/A   Clear
2:33 PM 24.8 °F 10.0 °F 12.2 °F 59% 30.46 in 10.0 mi North 21.9 mph 31.1 mph N/A   Scattered Clouds
2:54 PM 23.0 °F 8.3 °F 12.2 °F 63% 30.46 in 10.0 mi North 19.6 mph 31.1 mph N/A   Scattered Clouds
3:13 PM 23.0 °F 6.3 °F 12.2 °F 63% 30.47 in 10.0 mi North 26.5 mph 29.9 mph N/A   Scattered Clouds
3:33 PM 23.0 °F 8.3 °F 12.2 °F 63% 30.48 in 10.0 mi North 19.6 mph 28.8 mph N/A   Mostly Cloudy
3:54 PM 23.0 °F 7.2 °F 12.2 °F 63% 30.49 in 10.0 mi North 23.0 mph - N/A   Mostly Cloudy
4:14 PM 23.0 °F 6.9 °F 12.2 °F 63% 30.50 in 10.0 mi North 24.2 mph 28.8 mph N/A   Scattered Clouds
4:33 PM 21.2 °F 6.0 °F 12.2 °F 68% 30.51 in 10.0 mi NNW 19.6 mph 26.5 mph N/A   Clear
4:54 PM 21.2 °F 6.4 °F 12.2 °F 68% 30.52 in 10.0 mi NNW 18.4 mph 27.6 mph N/A   Scattered Clouds
5:14 PM 21.2 °F 4.9 °F 12.2 °F 68% 30.52 in 10.0 mi NNW 23.0 mph 32.2 mph N/A   Mostly Cloudy
5:33 PM 21.2 °F 6.4 °F 12.2 °F 68% 30.54 in 10.0 mi NNW 18.4 mph 26.5 mph N/A   Mostly Cloudy
5:54 PM 21.2 °F 6.4 °F 10.4 °F 63% 30.54 in 10.0 mi NNW 18.4 mph 27.6 mph N/A   Mostly Cloudy
6:14 PM 21.2 °F 6.0 °F 10.4 °F 63% 30.54 in 10.0 mi NNW 19.6 mph 24.2 mph N/A   Mostly Cloudy
6:33 PM 21.2 °F 6.4 °F 10.4 °F 63% 30.55 in 10.0 mi NNW 18.4 mph 26.5 mph N/A   Scattered Clouds
6:54 PM 21.2 °F 5.2 °F 10.4 °F 63% 30.55 in 10.0 mi NNW 21.9 mph 29.9 mph N/A   Mostly Cloudy
7:13 PM 21.2 °F 6.0 °F 10.4 °F 63% 30.56 in 10.0 mi NNW 19.6 mph 25.3 mph N/A   Scattered Clouds
7:34 PM 19.4 °F 4.5 °F 10.4 °F 68% 30.57 in 10.0 mi NNW 17.3 mph 24.2 mph N/A   Clear
7:53 PM 19.4 °F 4.5 °F 10.4 °F 68% 30.58 in 10.0 mi NNW 17.3 mph 24.2 mph N/A   Clear
8:14 PM 19.4 °F 3.6 °F 10.4 °F 68% 30.58 in 10.0 mi NNW 19.6 mph 25.3 mph N/A   Clear
8:33 PM 19.4 °F 3.2 °F 10.4 °F 68% 30.59 in 10.0 mi NNW 20.7 mph 24.2 mph N/A   Clear
8:54 PM 19.4 °F 3.2 °F 8.6 °F 63% 30.59 in 10.0 mi NNW 20.7 mph 24.2 mph N/A   Clear
9:14 PM 19.4 °F 4.5 °F 10.4 °F 68% 30.60 in 10.0 mi NNW 17.3 mph - N/A   Clear
9:33 PM 19.4 °F 6.0 °F 10.4 °F 68% 30.61 in 10.0 mi NNW 13.8 mph 19.6 mph N/A   Clear
9:54 PM 19.4 °F 6.0 °F 10.4 °F 68% 30.61 in 10.0 mi NNW 13.8 mph 17.3 mph N/A   Clear
10:14 PM 19.4 °F 7.2 °F 10.4 °F 68% 30.62 in 10.0 mi NNW 11.5 mph - N/A   Clear
10:33 PM 19.4 °F 7.2 °F 10.4 °F 68% 30.62 in 10.0 mi NW 11.5 mph - N/A   Clear
10:54 PM 17.6 °F 5.0 °F 10.4 °F 73% 30.62 in 10.0 mi NW 11.5 mph - N/A   Clear
11:13 PM 17.6 °F 7.3 °F 10.4 °F 73% 30.61 in 10.0 mi NW 8.1 mph - N/A   Clear
11:34 PM 17.6 °F 7.3 °F 10.4 °F 73% 30.61 in 10.0 mi NW 8.1 mph - N/A   Clear
11:54 PM 17.6 °F 7.3 °F 8.6 °F 68% 30.62 in 10.0 mi NW 8.1 mph - N/A   Clear